| time (UTC) | temp F | wind direction | speed MPH | gust MPH | rain 1hr in | rain 24hr in | rain mn in | humidity % | barometer mb |
| 20260905120044 | 71 | 284 | 1.0 | 2.0 | 0.00 | 0.02 | 0.00 | 84 | 1011.1 |
| 20260905114542 | 72 | 284 | 1.0 | 4.0 | 0.00 | 0.02 | 0.00 | 83 | 1011.1 |
| 20260905113042 | 73 | 271 | 2.0 | 4.0 | 0.00 | 0.02 | 0.00 | 81 | 1010.9 |
| 20260905111547 | 73 | 252 | 0.0 | 2.0 | 0.00 | 0.02 | 0.00 | 80 | 1010.9 |
| 20260905110041 | 74 | 252 | 1.0 | 4.0 | 0.00 | 0.02 | 0.00 | 79 | 1010.9 |
| 20260905104541 | 75 | 236 | 2.0 | 5.0 | 0.00 | 0.02 | 0.00 | 77 | 1010.9 |
| 20260905103045 | 75 | 213 | 2.0 | 7.0 | 0.00 | 0.02 | 0.00 | 78 | 1010.9 |
| 20260905101538 | 74 | 211 | 3.0 | 8.0 | 0.00 | 0.02 | 0.00 | 79 | 1010.9 |
| 20260905100035 | 73 | 183 | 3.0 | 10.0 | 0.00 | 0.02 | 0.00 | 82 | 1010.8 |
| 20260905094537 | 72 | 175 | 1.0 | 4.0 | 0.00 | 0.02 | 0.00 | 83 | 1010.9 |
| 20260905093033 | 72 | 175 | 0.0 | 2.0 | 0.00 | 0.02 | 0.00 | 83 | 1011.0 |
| 20260905091606 | 72 | 175 | 0.0 | 2.0 | 0.00 | 0.02 | 0.00 | 83 | 1010.9 |
| 20260905090032 | 72 | 175 | 1.0 | 3.0 | 0.00 | 0.02 | 0.00 | 83 | 1010.9 |
| 20260905084531 | 72 | 175 | 0.0 | 4.0 | 0.00 | 0.02 | 0.00 | 85 | 1010.9 |
| 20260905083030 | 71 | 175 | 0.0 | 2.0 | 0.00 | 0.02 | 0.00 | 86 | 1010.8 |
| 20260905081529 | 71 | 223 | 0.0 | 0.0 | 0.00 | 0.02 | 0.00 | 86 | 1010.9 |
| 20260905080133 | 71 | 223 | 0.0 | 0.0 | 0.00 | 0.02 | 0.00 | 86 | 1010.9 |
| 20260905074529 | 71 | 223 | 1.0 | 5.0 | 0.00 | 0.02 | 0.00 | 87 | 1011.0 |
| 20260905073030 | 71 | 221 | 0.0 | 2.0 | 0.00 | 0.02 | 0.00 | 87 | 1011.0 |
| 20260905071528 | 71 | 221 | 0.0 | 0.0 | 0.00 | 0.02 | 0.00 | 87 | 1011.2 |
| 20260905070026 | 71 | 221 | 0.0 | 2.0 | 0.00 | 0.02 | 0.00 | 87 | 1011.2 |
| 20260905064525 | 71 | 220 | 0.0 | 2.0 | 0.00 | 0.02 | 0.00 | 87 | 1011.2 |
| 20260905063023 | 72 | 219 | 1.0 | 3.0 | 0.00 | 0.02 | 0.00 | 86 | 1011.0 |
| 20260905061521 | 72 | 182 | 0.0 | 2.0 | 0.00 | 0.02 | 0.00 | 85 | 1010.9 |
| 20260905060018 | 72 | 180 | 0.0 | 2.0 | 0.00 | 0.02 | 0.00 | 84 | 1010.6 |
| 20260905054518 | 73 | 180 | 0.0 | 0.0 | 0.00 | 0.02 | 0.00 | 83 | 1010.7 |
| 20260905053013 | 73 | 180 | 0.0 | 1.0 | 0.00 | 0.02 | 0.00 | 82 | 1010.6 |
| 20260905051513 | 73 | 180 | 0.0 | 1.0 | 0.00 | 0.02 | 0.00 | 81 | 1010.4 |
| 20260905050008 | 74 | 180 | 0.0 | 3.0 | 0.00 | 0.02 | 0.02 | 81 | 1010.6 |
| 20260905044506 | 74 | 187 | 2.0 | 5.0 | 0.00 | 0.02 | 0.02 | 81 | 1010.6 |
| 20260905043012 | 74 | 211 | 1.0 | 3.0 | 0.00 | 0.02 | 0.02 | 80 | 1010.7 |
| 20260905041503 | 75 | 220 | 1.0 | 3.0 | 0.00 | 0.02 | 0.02 | 78 | 1010.7 |
| 20260905040005 | 75 | 225 | 2.0 | 4.0 | 0.00 | 0.02 | 0.02 | 77 | 1010.5 |
| 20260905034611 | 76 | 228 | 0.0 | 2.0 | 0.00 | 0.02 | 0.02 | 75 | 1010.5 |
| 20260905033101 | 77 | 228 | 0.0 | 2.0 | 0.00 | 0.02 | 0.02 | 73 | 1010.7 |
| 20260905031611 | 77 | 228 | 2.0 | 4.0 | 0.00 | 0.02 | 0.02 | 73 | 1010.6 |
| 20260905030058 | 78 | 227 | 3.0 | 6.0 | 0.00 | 0.02 | 0.02 | 72 | 1010.4 |
| 20260905024601 | 78 | 208 | 2.0 | 6.0 | 0.00 | 0.02 | 0.02 | 72 | 1010.0 |
| 20260905023058 | 78 | 198 | 2.0 | 9.0 | 0.00 | 0.02 | 0.02 | 73 | 1009.6 |
| 20260905021558 | 78 | 165 | 4.0 | 8.0 | 0.00 | 0.02 | 0.02 | 73 | 1009.2 |
| 20260905020055 | 78 | 180 | 3.0 | 6.0 | 0.00 | 0.02 | 0.02 | 74 | 1009.3 |
| 20260905014556 | 79 | 159 | 2.0 | 5.0 | 0.00 | 0.07 | 0.02 | 73 | 1009.3 |
| 20260905013053 | 79 | 174 | 1.0 | 4.0 | 0.00 | 0.07 | 0.02 | 72 | 1009.1 |
| 20260905011556 | 80 | 149 | 1.0 | 5.0 | 0.00 | 0.07 | 0.02 | 70 | 1009.3 |
| 20260905010057 | 81 | 198 | 4.0 | 8.0 | 0.00 | 0.07 | 0.02 | 69 | 1009.4 |
| 20260905004552 | 81 | 193 | 3.0 | 7.0 | 0.00 | 0.07 | 0.02 | 68 | 1009.6 |
| 20260905003052 | 82 | 200 | 3.0 | 8.0 | 0.00 | 0.07 | 0.02 | 67 | 1009.4 |
| 20260905001601 | 82 | 183 | 4.0 | 9.0 | 0.00 | 0.07 | 0.02 | 67 | 1009.0 |
| 20260905000110 | 82 | 199 | 5.0 | 11.0 | 0.00 | 0.07 | 0.02 | 65 | 1009.1 |
| 20260904234551 | 83 | 205 | 5.0 | 15.0 | 0.00 | 0.07 | 0.02 | 65 | 1009.0 |
| 20260904233111 | 82 | 165 | 4.0 | 9.0 | 0.00 | 0.07 | 0.02 | 64 | 1009.4 |
| 20260904231556 | 82 | 203 | 6.0 | 15.0 | 0.00 | 0.07 | 0.02 | 63 | 1008.9 |
| 20260904230049 | 82 | 186 | 5.0 | 14.0 | 0.00 | 0.07 | 0.02 | 65 | 1008.7 |
| 20260904224555 | 83 | 169 | 9.0 | 17.0 | 0.00 | 0.07 | 0.02 | 67 | 1008.7 |
| 20260904223102 | 83 | 168 | 6.0 | 15.0 | 0.00 | 0.07 | 0.02 | 67 | 1008.2 |
| 20260904221549 | 84 | 153 | 9.0 | 18.0 | 0.00 | 0.07 | 0.02 | 63 | 1007.8 |
| 20260904220046 | 83 | 138 | 3.0 | 7.0 | 0.00 | 0.07 | 0.02 | 64 | 1007.8 |
| 20260904214547 | 83 | 90 | 2.0 | 13.0 | 0.00 | 0.07 | 0.02 | 63 | 1007.7 |
| 20260904213047 | 82 | 162 | 3.0 | 7.0 | 0.02 | 0.07 | 0.02 | 68 | 1007.1 |
| 20260904211548 | 80 | 131 | 0.0 | 7.0 | 0.02 | 0.07 | 0.02 | 70 | 1007.6 |
| 20260904210058 | 80 | 159 | 10.0 | 23.0 | 0.02 | 0.07 | 0.02 | 69 | 1007.7 |
| 20260904204544 | 82 | 92 | 13.0 | 28.0 | 0.02 | 0.07 | 0.02 | 67 | 1007.9 |
| 20260904203045 | 100 | 161 | 8.0 | 15.0 | 0.00 | 0.05 | 0.00 | 39 | 1007.0 |
| 20260904201542 | 100 | 200 | 5.0 | 8.0 | 0.00 | 0.05 | 0.00 | 39 | 1007.1 |
| 20260904200039 | 100 | 180 | 5.0 | 9.0 | 0.00 | 0.05 | 0.00 | 38 | 1007.8 |
| 20260904194537 | 99 | 50 | 3.0 | 6.0 | 0.00 | 0.05 | 0.00 | 39 | 1007.9 |
| 20260904193034 | 99 | 105 | 2.0 | 7.0 | 0.00 | 0.05 | 0.00 | 41 | 1008.2 |
| 20260904191531 | 98 | 182 | 3.0 | 10.0 | 0.00 | 0.05 | 0.00 | 41 | 1008.4 |
| 20260904190034 | 97 | 265 | 5.0 | 11.0 | 0.00 | 0.05 | 0.00 | 42 | 1008.6 |
| 20260904184526 | 97 | 236 | 6.0 | 12.0 | 0.00 | 0.05 | 0.00 | 44 | 1008.9 |
| 20260904183026 | 96 | 240 | 4.0 | 9.0 | 0.00 | 0.05 | 0.00 | 46 | 1009.2 |
| 20260904181529 | 96 | 232 | 5.0 | 11.0 | 0.00 | 0.05 | 0.00 | 46 | 1009.3 |
| 20260904180018 | 95 | 153 | 5.0 | 11.0 | 0.00 | 0.05 | 0.00 | 48 | 1009.5 |
| 20260904174512 | 94 | 202 | 7.0 | 11.0 | 0.00 | 0.05 | 0.00 | 48 | 1009.7 |
| 20260904173017 | 93 | 199 | 6.0 | 10.0 | 0.00 | 0.05 | 0.00 | 50 | 1009.8 |
| 20260904171509 | 93 | 175 | 6.0 | 11.0 | 0.00 | 0.05 | 0.00 | 51 | 1010.0 |
| 20260904170001 | 92 | 216 | 5.0 | 12.0 | 0.00 | 0.05 | 0.00 | 52 | 1010.0 |
| 20260904164559 | 91 | 248 | 5.0 | 11.0 | 0.00 | 0.05 | 0.00 | 54 | 1010.2 |
| 20260904163055 | 90 | 201 | 5.0 | 10.0 | 0.00 | 0.05 | 0.00 | 56 | 1010.2 |
| 20260904161600 | 89 | 200 | 4.0 | 12.0 | 0.00 | 0.05 | 0.00 | 57 | 1010.4 |
| 20260904160057 | 88 | 211 | 2.0 | 8.0 | 0.00 | 0.05 | 0.00 | 60 | 1010.4 |
| 20260904154549 | 87 | 188 | 5.0 | 9.0 | 0.00 | 0.05 | 0.00 | 61 | 1010.3 |
| 20260904153044 | 86 | 221 | 5.0 | 9.0 | 0.00 | 0.05 | 0.00 | 63 | 1010.2 |
| 20260904151549 | 85 | 210 | 4.0 | 8.0 | 0.00 | 0.05 | 0.00 | 66 | 1010.2 |
| 20260904150042 | 84 | 199 | 6.0 | 11.0 | 0.00 | 0.05 | 0.00 | 68 | 1010.3 |
| 20260904144556 | 82 | 169 | 4.0 | 10.0 | 0.00 | 0.05 | 0.00 | 71 | 1010.3 |
| 20260904143054 | 81 | 223 | 3.0 | 10.0 | 0.00 | 0.05 | 0.00 | 74 | 1010.3 |
| 20260904141538 | 80 | 225 | 4.0 | 7.0 | 0.00 | 0.05 | 0.00 | 76 | 1010.3 |
| 20260904140039 | 79 | 219 | 7.0 | 12.0 | 0.00 | 0.05 | 0.00 | 78 | 1010.0 |
| 20260904134537 | 78 | 200 | 5.0 | 11.0 | 0.00 | 0.05 | 0.00 | 80 | 1009.9 |
| 20260904133036 | 77 | 214 | 7.0 | 11.0 | 0.00 | 0.05 | 0.00 | 81 | 1009.9 |
| 20260904131532 | 76 | 248 | 4.0 | 10.0 | 0.00 | 0.05 | 0.00 | 81 | 1009.7 |
| 20260904130031 | 76 | 222 | 2.0 | 10.0 | 0.00 | 0.05 | 0.00 | 81 | 1009.4 |
| 20260904124528 | 76 | 227 | 5.0 | 11.0 | 0.00 | 0.05 | 0.00 | 81 | 1009.2 |
| 20260904123027 | 76 | 219 | 5.0 | 10.0 | 0.00 | 0.05 | 0.00 | 80 | 1009.0 |
| 20260904121523 | 76 | 209 | 7.0 | 10.0 | 0.00 | 0.05 | 0.00 | 79 | 1009.0 |